Location: Austin
(30.3000°N, 97.7500°W)
Time: 11:58:00
(UTC-05:00)

Cosmos 2333 - Pass Details

Date: 05 September 2024
Orbit: 829 x 865 km, 70.9° (Epoch: 11 September)

Event Time Altitude Azimuth Distance (km) Brightness Sun altitude
Rises 20:18:54 0° 191° (S) 3,423 7.4 -7.4°
Reaches altitude 10° 20:21:21 10° 188° (S) 2,492 6.6 -7.9°
Maximum altitude 20:27:02 66° 107° (ESE) 941 4.2 -9.1°
Drops below altitude 10° 20:32:44 10° 26° (NNE) 2,505 6.5 -10.3°
Sets 20:35:13 0° 24° (NNE) 3,443 7.3 -10.8°
